Time,TemperatureF,DewpointF,PressureIn,WindDirection,WindDirectionDegrees,WindSpeedMPH,WindSpeedGustMPH,Humidity,HourlyPrecipIn,Conditions,Clouds,dailyrainin,SoftwareType,DateUTC
2013-01-11 00:00:00,31.8,22.5,30.50,NNW,338,1.8,6.9,68,0.00,,,0.00,WUHU216HW,2013-01-11 05:00:00,
2013-01-11 00:02:00,31.8,22.5,30.51,WNW,293,2.7,6.9,68,0.00,,,0.00,WUHU216HW,2013-01-11 05:02:00,
2013-01-11 00:03:00,31.8,22.5,30.51,WNW,293,2.7,6.9,68,0.00,,,0.00,WUHU216HW,2013-01-11 05:03:00,
2013-01-11 00:08:00,31.6,22.3,30.51,WSW,248,2.5,5.4,68,0.00,,,0.00,WUHU216HW,2013-01-11 05:08:00,
2013-01-11 00:13:00,31.4,22.8,30.51,NW,315,2.9,5.4,70,0.00,,,0.00,WUHU216HW,2013-01-11 05:13:00,
2013-01-11 00:18:00,31.4,22.8,30.51,WNW,293,1.1,4.7,70,0.00,,,0.00,WUHU216HW,2013-01-11 05:18:00,
2013-01-11 00:23:00,31.3,22.4,30.51,WNW,293,3.4,4.0,69,0.00,,,0.00,WUHU216HW,2013-01-11 05:23:00,
2013-01-11 00:28:00,31.1,22.5,30.51,ENE,68,1.1,4.9,70,0.00,,,0.00,WUHU216HW,2013-01-11 05:28:00,
2013-01-11 00:33:00,31.1,22.5,30.50,WNW,293,2.5,4.9,70,0.00,,,0.00,WUHU216HW,2013-01-11 05:33:00,
2013-01-11 00:38:00,30.9,22.3,30.50,West,270,3.4,3.4,70,0.00,,,0.00,WUHU216HW,2013-01-11 05:38:00,
2013-01-11 00:43:00,30.7,22.1,30.51,WNW,293,2.7,4.0,70,0.00,,,0.00,WUHU216HW,2013-01-11 05:43:00,
2013-01-11 00:48:00,30.7,22.1,30.50,NW,315,2.0,4.0,70,0.00,,,0.00,WUHU216HW,2013-01-11 05:48:00,
2013-01-11 00:53:00,30.5,21.9,30.50,NW,315,2.5,2.7,70,0.00,,,0.00,WUHU216HW,2013-01-11 05:53:00,
2013-01-11 00:58:00,30.4,21.8,30.50,NW,315,1.8,3.8,70,0.00,,,0.00,WUHU216HW,2013-01-11 05:58:00,
2013-01-11 01:03:00,30.4,21.8,30.50,NW,315,2.7,3.8,70,0.00,,,0.00,WUHU216HW,2013-01-11 06:03:00,
2013-01-11 01:08:00,30.4,21.8,30.50,WNW,293,2.5,4.0,70,0.00,,,0.00,WUHU216HW,2013-01-11 06:08:00,
2013-01-11 01:13:00,30.4,22.8,30.51,West,270,3.6,4.0,73,0.00,,,0.00,WUHU216HW,2013-01-11 06:13:00,
2013-01-11 01:18:00,30.4,22.2,30.50,NW,315,2.0,4.0,71,0.00,,,0.00,WUHU216HW,2013-01-11 06:18:00,
2013-01-11 01:23:00,30.2,22.0,30.51,NW,315,3.1,4.5,71,0.00,,,0.00,WUHU216HW,2013-01-11 06:23:00,
2013-01-11 01:26:00,30.2,22.0,30.51,WNW,293,3.6,3.6,71,0.00,,,0.00,WUHU216HW,2013-01-11 06:26:00,
2013-01-11 01:28:00,30.2,22.0,30.51,WNW,293,3.6,4.5,71,0.00,,,0.00,WUHU216HW,2013-01-11 06:28:00,
2013-01-11 01:33:00,30.2,22.0,30.51,WNW,293,3.6,3.6,71,0.00,,,0.00,WUHU216HW,2013-01-11 06:33:00,
2013-01-11 02:00:00,29.3,21.1,30.51,NW,315,2.2,2.2,71,0.00,,,0.00,WUHU216HW,2013-01-11 07:00:00,
2013-01-11 02:05:00,29.1,20.9,30.50,NNW,338,1.3,3.1,71,0.00,,,0.00,WUHU216HW,2013-01-11 07:05:00,
2013-01-11 02:10:00,28.9,21.1,30.50,NW,315,2.5,3.1,72,0.00,,,0.00,WUHU216HW,2013-01-11 07:10:00,
2013-01-11 02:15:00,28.7,20.9,30.50,NNW,338,1.8,4.5,72,0.00,,,0.00,WUHU216HW,2013-01-11 07:15:00,
2013-01-11 02:20:00,28.7,20.9,30.51,NW,315,1.1,4.5,72,0.00,,,0.00,WUHU216HW,2013-01-11 07:20:00,
2013-01-11 02:25:00,28.6,21.1,30.50,WNW,293,2.5,4.0,73,0.00,,,0.00,WUHU216HW,2013-01-11 07:25:00,
2013-01-11 02:30:00,28.4,20.9,30.50,NNW,338,2.5,4.0,73,0.00,,,0.00,WUHU216HW,2013-01-11 07:30:00,
2013-01-11 02:35:00,28.4,21.2,30.50,NNW,338,2.2,3.4,74,0.00,,,0.00,WUHU216HW,2013-01-11 07:35:00,
2013-01-11 02:40:00,28.2,20.7,30.49,WNW,293,3.8,4.0,73,0.00,,,0.00,WUHU216HW,2013-01-11 07:40:00,
2013-01-11 02:45:00,28.4,20.9,30.49,SW,225,2.7,4.5,73,0.00,,,0.00,WUHU216HW,2013-01-11 07:45:00,
2013-01-11 02:50:00,28.2,20.7,30.49,NW,315,4.9,4.9,73,0.00,,,0.00,WUHU216HW,2013-01-11 07:50:00,
2013-01-11 02:55:00,28.0,21.1,30.50,WNW,293,2.7,4.9,75,0.00,,,0.00,WUHU216HW,2013-01-11 07:55:00,
2013-01-11 03:00:00,27.8,20.9,30.50,WNW,293,2.2,4.9,75,0.00,,,0.00,WUHU216HW,2013-01-11 08:00:00,
2013-01-11 03:05:00,27.8,20.9,30.50,NW,315,4.0,4.0,75,0.00,,,0.00,WUHU216HW,2013-01-11 08:05:00,
2013-01-11 03:10:00,27.8,20.6,30.49,WNW,293,3.8,4.0,74,0.00,,,0.00,WUHU216HW,2013-01-11 08:10:00,
2013-01-11 03:15:00,27.8,20.6,30.50,WNW,293,1.8,4.0,74,0.00,,,0.00,WUHU216HW,2013-01-11 08:15:00,
2013-01-11 03:20:00,27.8,20.6,30.49,NW,315,2.5,4.0,74,0.00,,,0.00,WUHU216HW,2013-01-11 08:20:00,
2013-01-11 03:25:00,27.7,20.5,30.49,WNW,293,1.3,3.4,74,0.00,,,0.00,WUHU216HW,2013-01-11 08:25:00,
2013-01-11 03:30:00,27.7,20.8,30.49,NW,315,2.2,3.4,75,0.00,,,0.00,WUHU216HW,2013-01-11 08:30:00,
2013-01-11 03:35:00,27.5,21.0,30.49,West,270,2.5,3.4,76,0.00,,,0.00,WUHU216HW,2013-01-11 08:35:00,
2013-01-11 03:40:00,27.5,21.6,30.48,WNW,293,4.0,4.0,78,0.00,,,0.00,WUHU216HW,2013-01-11 08:40:00,
2013-01-11 03:45:00,27.3,21.4,30.48,West,270,2.9,4.3,78,0.00,,,0.00,WUHU216HW,2013-01-11 08:45:00,
2013-01-11 03:50:00,27.1,21.5,30.47,West,270,1.8,4.3,79,0.00,,,0.00,WUHU216HW,2013-01-11 08:50:00,
2013-01-11 03:55:00,26.9,21.3,30.47,WNW,293,2.9,4.0,79,0.00,,,0.00,WUHU216HW,2013-01-11 08:55:00,
2013-01-11 04:00:00,27.1,21.2,30.47,WNW,293,3.4,4.7,78,0.00,,,0.00,WUHU216HW,2013-01-11 09:00:00,
2013-01-11 04:05:00,27.1,21.2,30.47,NW,315,2.0,4.7,78,0.00,,,0.00,WUHU216HW,2013-01-11 09:05:00,
2013-01-11 04:10:00,27.1,20.9,30.47,NW,315,2.2,3.8,77,0.00,,,0.00,WUHU216HW,2013-01-11 09:10:00,
2013-01-11 04:15:00,27.1,20.9,30.47,West,270,1.8,3.8,77,0.00,,,0.00,WUHU216HW,2013-01-11 09:15:00,
2013-01-11 04:20:00,27.1,21.2,30.47,West,270,3.6,3.8,78,0.00,,,0.00,WUHU216HW,2013-01-11 09:20:00,
2013-01-11 04:25:00,26.9,21.0,30.47,WNW,293,3.6,3.8,78,0.00,,,0.00,WUHU216HW,2013-01-11 09:25:00,
2013-01-11 04:30:00,26.8,20.9,30.47,WNW,293,1.8,3.6,78,0.00,,,0.00,WUHU216HW,2013-01-11 09:30:00,
2013-01-11 04:35:00,26.8,20.6,30.46,WNW,293,0.7,3.6,77,0.00,,,0.00,WUHU216HW,2013-01-11 09:35:00,
2013-01-11 04:40:00,26.8,20.9,30.47,NW,315,1.8,2.0,78,0.00,,,0.00,WUHU216HW,2013-01-11 09:40:00,
2013-01-11 04:45:00,26.8,20.9,30.47,WNW,293,1.1,2.2,78,0.00,,,0.00,WUHU216HW,2013-01-11 09:45:00,
2013-01-11 04:50:00,26.8,21.2,30.47,West,270,1.8,2.5,79,0.00,,,0.00,WUHU216HW,2013-01-11 09:50:00,
2013-01-11 04:55:00,26.8,21.2,30.47,WNW,293,1.8,2.5,79,0.00,,,0.00,WUHU216HW,2013-01-11 09:55:00,
2013-01-11 05:00:00,26.8,20.6,30.47,NW,315,0.9,2.5,77,0.00,,,0.00,WUHU216HW,2013-01-11 10:00:00,
2013-01-11 05:05:00,26.8,20.6,30.48,WNW,293,0.4,1.8,77,0.00,,,0.00,WUHU216HW,2013-01-11 10:05:00,
2013-01-11 05:10:00,26.8,20.3,30.47,NW,315,0.4,1.6,76,0.00,,,0.00,WUHU216HW,2013-01-11 10:10:00,
2013-01-11 05:15:00,26.8,20.3,30.47,NW,315,1.6,2.0,76,0.00,,,0.00,WUHU216HW,2013-01-11 10:15:00,
2013-01-11 05:20:00,26.8,20.6,30.48,NW,315,1.8,2.0,77,0.00,,,0.00,WUHU216HW,2013-01-11 10:20:00,
2013-01-11 05:25:00,26.6,20.1,30.48,NW,315,2.5,3.4,76,0.00,,,0.00,WUHU216HW,2013-01-11 10:25:00,
2013-01-11 05:30:00,26.6,20.4,30.48,WNW,293,2.5,3.8,77,0.00,,,0.00,WUHU216HW,2013-01-11 10:30:00,
2013-01-11 05:35:00,26.6,20.4,30.49,NW,315,2.7,3.8,77,0.00,,,0.00,WUHU216HW,2013-01-11 10:35:00,
2013-01-11 05:40:00,26.4,20.2,30.49,NW,315,2.5,3.1,77,0.00,,,0.00,WUHU216HW,2013-01-11 10:40:00,
2013-01-11 05:45:00,26.4,20.2,30.49,NW,315,3.4,3.4,77,0.00,,,0.00,WUHU216HW,2013-01-11 10:45:00,
2013-01-11 05:50:00,26.2,20.0,30.49,NW,315,1.1,3.4,77,0.00,,,0.00,WUHU216HW,2013-01-11 10:50:00,
2013-01-11 05:55:00,26.0,19.8,30.49,NW,315,2.5,3.4,77,0.00,,,0.00,WUHU216HW,2013-01-11 10:55:00,
2013-01-11 06:00:00,26.0,19.8,30.50,NW,315,1.6,3.6,77,0.00,,,0.00,WUHU216HW,2013-01-11 11:00:00,
2013-01-11 06:05:00,26.0,19.8,30.50,WNW,293,2.2,3.6,77,0.00,,,0.00,WUHU216HW,2013-01-11 11:05:00,
2013-01-11 06:10:00,26.1,19.9,30.50,WNW,293,2.0,3.4,77,0.00,,,0.00,WUHU216HW,2013-01-11 11:10:00,
2013-01-11 06:15:00,26.1,20.2,30.49,NW,315,1.3,3.4,78,0.00,,,0.00,WUHU216HW,2013-01-11 11:15:00,
2013-01-11 06:20:00,26.3,20.4,30.50,NNW,338,0.9,2.7,78,0.00,,,0.00,WUHU216HW,2013-01-11 11:20:00,
2013-01-11 06:25:00,26.4,20.8,30.50,NNW,338,2.5,2.7,79,0.00,,,0.00,WUHU216HW,2013-01-11 11:25:00,
2013-01-11 06:30:00,26.6,21.0,30.49,NNW,338,1.8,2.7,79,0.00,,,0.00,WUHU216HW,2013-01-11 11:30:00,
2013-01-11 06:35:00,26.9,21.2,30.50,NW,315,1.8,3.1,79,0.00,,,0.00,WUHU216HW,2013-01-11 11:35:00,
2013-01-11 06:40:00,26.7,21.1,30.50,WNW,293,0.7,3.4,79,0.00,,,0.00,WUHU216HW,2013-01-11 11:40:00,
2013-01-11 06:45:00,26.7,21.1,30.50,WNW,293,2.5,4.0,79,0.00,,,0.00,WUHU216HW,2013-01-11 11:45:00,
2013-01-11 06:50:00,26.8,21.1,30.49,NW,315,0.7,4.0,79,0.00,,,0.00,WUHU216HW,2013-01-11 11:50:00,
2013-01-11 06:55:00,26.8,21.2,30.49,NW,315,0.4,2.5,79,0.00,,,0.00,WUHU216HW,2013-01-11 11:55:00,
2013-01-11 07:00:00,26.8,20.9,30.50,WNW,293,0.9,1.6,78,0.00,,,0.00,WUHU216HW,2013-01-11 12:00:00,
2013-01-11 07:05:00,27.1,21.1,30.50,WNW,293,2.9,2.9,78,0.00,,,0.00,WUHU216HW,2013-01-11 12:05:00,
2013-01-11 07:10:00,27.3,21.4,30.50,WNW,293,2.2,3.1,78,0.00,,,0.00,WUHU216HW,2013-01-11 12:10:00,
2013-01-11 07:15:00,27.3,21.4,30.50,West,270,2.5,3.1,78,0.00,,,0.00,WUHU216HW,2013-01-11 12:15:00,
2013-01-11 07:20:00,27.5,21.8,30.51,WNW,293,1.8,2.7,79,0.00,,,0.00,WUHU216HW,2013-01-11 12:20:00,
2013-01-11 07:25:00,27.5,22.4,30.51,NW,315,2.9,3.4,81,0.00,,,0.00,WUHU216HW,2013-01-11 12:25:00,
2013-01-11 07:30:00,27.7,22.1,30.51,WSW,248,2.5,3.8,79,0.00,,,0.00,WUHU216HW,2013-01-11 12:30:00,
2013-01-11 07:35:00,27.8,22.1,30.51,NW,315,3.1,3.8,79,0.00,,,0.00,WUHU216HW,2013-01-11 12:35:00,
2013-01-11 07:40:00,28.0,22.3,30.51,NNW,338,3.4,3.4,79,0.00,,,0.00,WUHU216HW,2013-01-11 12:40:00,
2013-01-11 07:45:00,28.2,22.6,30.51,NW,315,1.8,3.4,79,0.00,,,0.00,WUHU216HW,2013-01-11 12:45:00,
2013-01-11 07:50:00,28.3,22.6,30.51,NNE,23,0.4,3.4,79,0.00,,,0.00,WUHU216HW,2013-01-11 12:50:00,
2013-01-11 07:55:00,28.5,22.8,30.51,NW,315,0.9,3.4,79,0.00,,,0.00,WUHU216HW,2013-01-11 12:55:00,
2013-01-11 08:00:00,28.6,23.0,30.51,NNW,338,1.1,2.5,79,0.00,,,0.00,WUHU216HW,2013-01-11 13:00:00,
2013-01-11 08:05:00,29.1,23.4,30.51,West,270,2.5,3.4,79,0.00,,,0.00,WUHU216HW,2013-01-11 13:05:00,
2013-01-11 08:10:00,29.3,23.6,30.51,West,270,2.5,3.4,79,0.00,,,0.00,WUHU216HW,2013-01-11 13:10:00,
2013-01-11 08:15:00,29.5,23.8,30.51,WNW,293,2.5,3.1,79,0.00,,,0.00,WUHU216HW,2013-01-11 13:15:00,
2013-01-11 08:20:00,29.6,23.9,30.51,NNW,338,2.5,3.4,79,0.00,,,0.00,WUHU216HW,2013-01-11 13:20:00,
2013-01-11 08:25:00,29.7,23.7,30.51,SW,225,2.9,4.3,78,0.00,,,0.00,WUHU216HW,2013-01-11 13:25:00,
2013-01-11 08:30:00,30.1,24.1,30.51,NW,315,2.5,4.3,78,0.00,,,0.00,WUHU216HW,2013-01-11 13:30:00,
2013-01-11 08:35:00,30.6,24.5,30.51,WNW,293,2.7,4.0,78,0.00,,,0.00,WUHU216HW,2013-01-11 13:35:00,
2013-01-11 08:40:00,31.1,25.0,30.51,NW,315,1.3,4.5,78,0.00,,,0.00,WUHU216HW,2013-01-11 13:40:00,
2013-01-11 08:45:00,31.8,25.5,30.51,West,270,2.2,4.5,77,0.00,,,0.00,WUHU216HW,2013-01-11 13:45:00,
2013-01-11 08:50:00,32.4,25.4,30.51,NNW,338,0.4,4.0,75,0.00,,,0.00,WUHU216HW,2013-01-11 13:50:00,
2013-01-11 08:55:00,33.7,26.3,30.51,NW,315,2.5,4.0,74,0.00,,,0.00,WUHU216HW,2013-01-11 13:55:00,
2013-01-11 09:00:00,35.0,27.3,30.50,WSW,248,0.4,3.4,73,0.00,,,0.00,WUHU216HW,2013-01-11 14:00:00,
2013-01-11 09:05:00,36.6,28.5,30.50,WNW,293,0.7,2.5,72,0.00,,,0.00,WUHU216HW,2013-01-11 14:05:00,
2013-01-11 09:10:00,38.9,30.1,30.50,NW,315,1.1,1.8,70,0.00,,,0.00,WUHU216HW,2013-01-11 14:10:00,
2013-01-11 09:15:00,39.6,30.0,30.50,NNE,23,0.4,1.8,68,0.00,,,0.00,WUHU216HW,2013-01-11 14:15:00,
2013-01-11 09:20:00,39.4,30.2,30.50,SSE,158,0.2,1.8,69,0.00,,,0.00,WUHU216HW,2013-01-11 14:20:00,
2013-01-11 09:25:00,40.3,31.4,30.49,NE,45,0.4,0.4,70,0.00,,,0.00,WUHU216HW,2013-01-11 14:25:00,
2013-01-11 09:30:00,41.2,31.9,30.49,NW,315,0.0,0.9,69,0.00,,,0.00,WUHU216HW,2013-01-11 14:30:00,
2013-01-11 09:35:00,41.8,32.1,30.49,WSW,248,0.0,0.9,68,0.00,,,0.00,WUHU216HW,2013-01-11 14:35:00,
2013-01-11 09:40:00,42.0,31.5,30.49,WSW,248,0.2,1.3,66,0.00,,,0.00,WUHU216HW,2013-01-11 14:40:00,
2013-01-11 09:45:00,41.8,31.0,30.49,WNW,293,0.0,1.3,65,0.00,,,0.00,WUHU216HW,2013-01-11 14:45:00,
2013-01-11 09:50:00,42.0,31.2,30.49,West,270,0.0,0.4,65,0.00,,,0.00,WUHU216HW,2013-01-11 14:50:00,
2013-01-11 09:55:00,42.1,30.5,30.49,West,270,0.2,0.9,63,0.00,,,0.00,WUHU216HW,2013-01-11 14:55:00,
2013-01-11 10:00:00,41.8,30.2,30.49,NW,315,0.4,0.9,63,0.00,,,0.00,WUHU216HW,2013-01-11 15:00:00,
2013-01-11 10:05:00,41.6,30.0,30.49,South,180,0.4,1.1,63,0.00,,,0.00,WUHU216HW,2013-01-11 15:05:00,
2013-01-11 10:10:00,41.6,30.0,30.49,WNW,293,0.9,1.3,63,0.00,,,0.00,WUHU216HW,2013-01-11 15:10:00,
2013-01-11 10:15:00,42.1,30.5,30.49,SW,225,0.4,1.3,63,0.00,,,0.00,WUHU216HW,2013-01-11 15:15:00,
2013-01-11 10:20:00,42.4,30.7,30.49,NW,315,1.1,1.8,63,0.00,,,0.00,WUHU216HW,2013-01-11 15:20:00,
2013-01-11 10:25:00,42.8,30.7,30.48,NW,315,1.3,1.8,62,0.00,,,0.00,WUHU216HW,2013-01-11 15:25:00,
2013-01-11 10:30:00,42.6,30.2,30.48,NNW,338,1.1,2.0,61,0.00,,,0.00,WUHU216HW,2013-01-11 15:30:00,
2013-01-11 10:35:00,42.0,30.0,30.47,WNW,293,1.3,2.0,62,0.00,,,0.00,WUHU216HW,2013-01-11 15:35:00,
2013-01-11 10:40:00,42.0,30.0,30.47,SSE,158,1.1,2.5,62,0.00,,,0.00,WUHU216HW,2013-01-11 15:40:00,
2013-01-11 10:45:00,42.2,30.2,30.47,West,270,1.1,2.5,62,0.00,,,0.00,WUHU216HW,2013-01-11 15:45:00,
2013-01-11 10:50:00,42.1,30.4,30.47,West,270,1.6,2.2,63,0.00,,,0.00,WUHU216HW,2013-01-11 15:50:00,
2013-01-11 10:55:00,42.0,30.4,30.47,WSW,248,1.1,2.2,63,0.00,,,0.00,WUHU216HW,2013-01-11 15:55:00,
2013-01-11 11:00:00,42.0,30.4,30.46,NW,315,1.1,1.8,63,0.00,,,0.00,WUHU216HW,2013-01-11 16:00:00,
2013-01-11 11:05:00,42.3,31.1,30.46,North,0,2.5,2.5,64,0.00,,,0.00,WUHU216HW,2013-01-11 16:05:00,
2013-01-11 11:10:00,42.9,31.3,30.45,WSW,248,0.9,2.5,63,0.00,,,0.00,WUHU216HW,2013-01-11 16:10:00,
2013-01-11 11:15:00,43.0,31.4,30.45,NW,315,1.6,1.8,63,0.00,,,0.00,WUHU216HW,2013-01-11 16:15:00,
2013-01-11 11:20:00,42.9,31.3,30.45,NNW,338,1.1,1.8,63,0.00,,,0.00,WUHU216HW,2013-01-11 16:20:00,
2013-01-11 11:25:00,42.7,31.1,30.44,East,90,1.3,2.0,63,0.00,,,0.00,WUHU216HW,2013-01-11 16:25:00,
2013-01-11 11:30:00,42.3,30.7,30.44,NW,315,1.3,2.0,63,0.00,,,0.00,WUHU216HW,2013-01-11 16:30:00,
2013-01-11 11:35:00,42.1,30.8,30.44,WSW,248,0.7,2.0,64,0.00,,,0.00,WUHU216HW,2013-01-11 16:35:00,
2013-01-11 11:40:00,41.7,30.9,30.43,NW,315,1.1,1.8,65,0.00,,,0.00,WUHU216HW,2013-01-11 16:40:00,
2013-01-11 11:45:00,41.5,30.7,30.43,NW,315,0.4,1.8,65,0.00,,,0.00,WUHU216HW,2013-01-11 16:45:00,
2013-01-11 11:50:00,41.2,30.8,30.42,NW,315,1.8,1.8,66,0.00,,,0.00,WUHU216HW,2013-01-11 16:50:00,
2013-01-11 11:55:00,41.0,30.9,30.42,NW,315,1.1,1.8,67,0.00,,,0.00,WUHU216HW,2013-01-11 16:55:00,
2013-01-11 12:00:00,40.8,30.8,30.42,North,0,0.9,2.5,67,0.00,,,0.00,WUHU216HW,2013-01-11 17:00:00,
2013-01-11 12:05:00,40.8,30.8,30.42,SE,135,1.1,2.5,67,0.00,,,0.00,WUHU216HW,2013-01-11 17:05:00,
2013-01-11 12:10:00,40.8,30.8,30.41,NNW,338,1.6,1.8,67,0.00,,,0.00,WUHU216HW,2013-01-11 17:10:00,
2013-01-11 12:15:00,41.0,31.0,30.42,West,270,1.3,1.8,67,0.00,,,0.00,WUHU216HW,2013-01-11 17:15:00,
2013-01-11 12:20:00,41.0,31.0,30.41,SW,225,0.2,1.6,67,0.00,,,0.00,WUHU216HW,2013-01-11 17:20:00,
2013-01-11 12:25:00,41.2,31.2,30.41,NE,45,1.1,1.6,67,0.00,,,0.00,WUHU216HW,2013-01-11 17:25:00,
2013-01-11 12:30:00,41.2,31.2,30.40,WNW,293,0.7,1.6,67,0.00,,,0.00,WUHU216HW,2013-01-11 17:30:00,
2013-01-11 12:35:00,41.3,31.3,30.40,NW,315,0.4,1.1,67,0.00,,,0.00,WUHU216HW,2013-01-11 17:35:00,
2013-01-11 12:40:00,41.5,31.8,30.40,NW,315,0.2,1.1,68,0.00,,,0.00,WUHU216HW,2013-01-11 17:40:00,
2013-01-11 12:45:00,41.5,30.7,30.40,WNW,293,2.0,4.9,65,0.00,,,0.00,WUHU216HW,2013-01-11 17:45:00,
2013-01-11 12:50:00,41.5,30.7,30.40,East,90,2.5,4.9,65,0.00,,,0.00,WUHU216HW,2013-01-11 17:50:00,
2013-01-11 12:55:00,41.2,30.0,30.40,East,90,1.8,5.4,64,0.00,,,0.00,WUHU216HW,2013-01-11 17:55:00,
2013-01-11 13:00:00,41.0,29.8,30.40,ESE,113,3.8,5.4,64,0.00,,,0.00,WUHU216HW,2013-01-11 18:00:00,
2013-01-11 13:05:00,41.2,30.0,30.40,ENE,68,3.8,3.8,64,0.00,,,0.00,WUHU216HW,2013-01-11 18:05:00,
2013-01-11 13:10:00,40.8,30.0,30.40,ESE,113,1.3,3.8,65,0.00,,,0.00,WUHU216HW,2013-01-11 18:10:00,
2013-01-11 13:15:00,40.8,30.0,30.40,South,180,1.1,3.8,65,0.00,,,0.00,WUHU216HW,2013-01-11 18:15:00,
2013-01-11 13:20:00,40.8,30.0,30.40,ESE,113,3.4,3.4,65,0.00,,,0.00,WUHU216HW,2013-01-11 18:20:00,
2013-01-11 13:25:00,40.6,29.8,30.40,SE,135,3.1,3.4,65,0.00,,,0.00,WUHU216HW,2013-01-11 18:25:00,
2013-01-11 13:30:00,40.5,29.8,30.40,SE,135,1.1,3.4,65,0.00,,,0.00,WUHU216HW,2013-01-11 18:30:00,
2013-01-11 13:35:00,40.3,29.6,30.39,ESE,113,1.1,3.4,65,0.00,,,0.00,WUHU216HW,2013-01-11 18:35:00,
2013-01-11 13:40:00,40.5,29.8,30.39,ESE,113,1.1,3.4,65,0.00,,,0.00,WUHU216HW,2013-01-11 18:40:00,
2013-01-11 13:45:00,40.7,29.9,30.39,SSE,158,1.6,3.1,65,0.00,,,0.00,WUHU216HW,2013-01-11 18:45:00,
2013-01-11 13:50:00,40.7,29.9,30.39,ESE,113,1.1,3.1,65,0.00,,,0.00,WUHU216HW,2013-01-11 18:50:00,
2013-01-11 13:55:00,40.5,29.7,30.39,SE,135,0.4,1.8,65,0.00,,,0.00,WUHU216HW,2013-01-11 18:55:00,
2013-01-11 14:00:00,40.7,29.9,30.39,ESE,113,0.4,2.5,65,0.00,,,0.00,WUHU216HW,2013-01-11 19:00:00,
2013-01-11 14:05:00,40.7,29.9,30.39,ESE,113,1.1,2.5,65,0.00,,,0.00,WUHU216HW,2013-01-11 19:05:00,
2013-01-11 14:10:00,40.5,29.7,30.39,ESE,113,1.1,2.2,65,0.00,,,0.00,WUHU216HW,2013-01-11 19:10:00,
2013-01-11 14:15:00,40.4,29.7,30.39,SE,135,1.1,2.5,65,0.00,,,0.00,WUHU216HW,2013-01-11 19:15:00,
2013-01-11 14:20:00,40.4,30.0,30.38,ESE,113,1.3,2.5,66,0.00,,,0.00,WUHU216HW,2013-01-11 19:20:00,
2013-01-11 14:25:00,40.4,30.0,30.37,SE,135,3.1,3.4,66,0.00,,,0.00,WUHU216HW,2013-01-11 19:25:00,
2013-01-11 14:30:00,40.2,29.8,30.37,East,90,2.0,3.6,66,0.00,,,0.00,WUHU216HW,2013-01-11 19:30:00,
2013-01-11 14:35:00,40.4,30.0,30.37,ESE,113,2.0,3.6,66,0.00,,,0.00,WUHU216HW,2013-01-11 19:35:00,
2013-01-11 14:40:00,40.2,29.8,30.37,SSE,158,1.6,2.2,66,0.00,,,0.00,WUHU216HW,2013-01-11 19:40:00,
2013-01-11 14:45:00,40.1,30.1,30.37,SE,135,1.3,2.2,67,0.00,,,0.00,WUHU216HW,2013-01-11 19:45:00,
2013-01-11 14:50:00,40.0,30.0,30.37,ESE,113,2.5,2.7,67,0.00,,,0.00,WUHU216HW,2013-01-11 19:50:00,
2013-01-11 14:55:00,39.8,29.8,30.37,SSE,158,0.4,2.7,67,0.00,,,0.00,WUHU216HW,2013-01-11 19:55:00,
2013-01-11 15:00:00,39.8,29.8,30.37,SE,135,0.9,2.5,67,0.00,,,0.00,WUHU216HW,2013-01-11 20:00:00,
2013-01-11 15:05:00,40.0,30.0,30.37,SSE,158,0.2,1.1,67,0.00,,,0.00,WUHU216HW,2013-01-11 20:05:00,
2013-01-11 15:10:00,39.7,29.8,30.36,SSE,158,1.8,2.9,67,0.00,,,0.00,WUHU216HW,2013-01-11 20:10:00,
2013-01-11 15:15:00,39.7,29.7,30.36,South,180,1.1,2.9,67,0.00,,,0.00,WUHU216HW,2013-01-11 20:15:00,
2013-01-11 15:20:00,39.7,29.7,30.36,SE,135,1.1,1.8,67,0.00,,,0.00,WUHU216HW,2013-01-11 20:20:00,
2013-01-11 15:25:00,39.7,29.7,30.36,SSE,158,0.0,1.3,67,0.00,,,0.00,WUHU216HW,2013-01-11 20:25:00,
2013-01-11 15:30:00,39.6,29.7,30.35,SSW,203,0.2,1.1,67,0.00,,,0.00,WUHU216HW,2013-01-11 20:30:00,
2013-01-11 15:35:00,39.6,29.6,30.35,SW,225,0.4,0.4,67,0.00,,,0.00,WUHU216HW,2013-01-11 20:35:00,
2013-01-11 15:40:00,39.6,29.6,30.35,SW,225,0.0,1.1,67,0.00,,,0.00,WUHU216HW,2013-01-11 20:40:00,
2013-01-11 15:45:00,39.6,29.6,30.35,WSW,248,0.0,1.1,67,0.00,,,0.00,WUHU216HW,2013-01-11 20:45:00,
2013-01-11 15:50:00,39.3,29.4,30.35,WSW,248,0.9,0.9,67,0.00,,,0.00,WUHU216HW,2013-01-11 20:50:00,
2013-01-11 15:55:00,39.3,29.4,30.34,South,180,0.0,0.9,67,0.00,,,0.00,WUHU216HW,2013-01-11 20:55:00,
2013-01-11 16:00:00,39.1,29.5,30.34,South,180,0.4,0.9,68,0.00,,,0.00,WUHU216HW,2013-01-11 21:00:00,
2013-01-11 16:05:00,39.1,29.5,30.34,ESE,113,3.4,3.4,68,0.00,,,0.00,WUHU216HW,2013-01-11 21:05:00,
2013-01-11 16:10:00,39.0,30.5,30.34,SE,135,3.4,5.1,71,0.00,,,0.00,WUHU216HW,2013-01-11 21:10:00,
2013-01-11 16:15:00,39.0,30.5,30.33,SE,135,1.6,5.1,71,0.00,,,0.00,WUHU216HW,2013-01-11 21:15:00,
2013-01-11 16:20:00,39.0,30.4,30.32,ESE,113,2.7,4.0,71,0.00,,,0.00,WUHU216HW,2013-01-11 21:20:00,
2013-01-11 16:25:00,39.0,30.4,30.32,SE,135,4.0,5.4,71,0.00,,,0.00,WUHU216HW,2013-01-11 21:25:00,
2013-01-11 16:30:00,38.9,30.4,30.32,East,90,5.6,5.6,71,0.00,,,0.00,WUHU216HW,2013-01-11 21:30:00,
2013-01-11 16:35:00,38.9,30.7,30.31,ESE,113,1.8,5.6,72,0.00,,,0.00,WUHU216HW,2013-01-11 21:35:00,
2013-01-11 16:40:00,38.9,30.7,30.31,SE,135,3.1,4.9,72,0.00,,,0.00,WUHU216HW,2013-01-11 21:40:00,
2013-01-11 16:45:00,38.8,30.6,30.31,SSE,158,3.8,5.6,72,0.00,,,0.00,WUHU216HW,2013-01-11 21:45:00,
2013-01-11 16:50:00,38.8,30.9,30.31,SE,135,1.1,5.6,73,0.00,,,0.00,WUHU216HW,2013-01-11 21:50:00,
2013-01-11 16:55:00,39.0,31.1,30.32,SSE,158,4.0,5.8,73,0.00,,,0.00,WUHU216HW,2013-01-11 21:55:00,
2013-01-11 17:00:00,38.9,31.1,30.32,SSE,158,3.4,5.8,73,0.00,,,0.00,WUHU216HW,2013-01-11 22:00:00,
2013-01-11 17:05:00,38.7,30.9,30.32,SSW,203,2.0,4.9,73,0.00,,,0.00,WUHU216HW,2013-01-11 22:05:00,
2013-01-11 17:10:00,38.9,31.0,30.32,SE,135,3.4,4.9,73,0.00,,,0.00,WUHU216HW,2013-01-11 22:10:00,
2013-01-11 17:15:00,38.6,30.8,30.32,SSW,203,1.8,4.7,73,0.00,,,0.00,WUHU216HW,2013-01-11 22:15:00,
2013-01-11 17:20:00,38.6,30.4,30.32,South,180,1.1,3.4,72,0.00,,,0.00,WUHU216HW,2013-01-11 22:20:00,
2013-01-11 17:25:00,38.4,30.2,30.32,SW,225,1.1,2.5,72,0.00,,,0.00,WUHU216HW,2013-01-11 22:25:00,
2013-01-11 17:30:00,38.2,30.1,30.32,South,180,0.4,1.6,72,0.00,,,0.00,WUHU216HW,2013-01-11 22:30:00,
2013-01-11 17:35:00,38.2,30.0,30.31,South,180,0.4,1.6,72,0.00,,,0.00,WUHU216HW,2013-01-11 22:35:00,
2013-01-11 17:40:00,38.0,29.8,30.31,SSE,158,0.9,1.8,72,0.00,,,0.00,WUHU216HW,2013-01-11 22:40:00,
2013-01-11 17:45:00,37.9,29.8,30.31,SW,225,1.1,1.8,72,0.00,,,0.00,WUHU216HW,2013-01-11 22:45:00,
2013-01-11 17:50:00,37.9,29.7,30.31,SSW,203,0.9,1.3,72,0.00,,,0.00,WUHU216HW,2013-01-11 22:50:00,
2013-01-11 17:55:00,37.9,29.7,30.31,South,180,0.2,1.1,72,0.00,,,0.00,WUHU216HW,2013-01-11 22:55:00,
2013-01-11 18:00:00,37.8,29.7,30.31,SSW,203,0.0,1.1,72,0.00,,,0.00,WUHU216HW,2013-01-11 23:00:00,
2013-01-11 18:05:00,37.8,30.0,30.31,SW,225,0.0,0.9,73,0.00,,,0.00,WUHU216HW,2013-01-11 23:05:00,
2013-01-11 18:10:00,37.8,29.9,30.31,SW,225,0.0,0.4,73,0.00,,,0.00,WUHU216HW,2013-01-11 23:10:00,
2013-01-11 18:15:00,37.7,29.9,30.31,SSW,203,0.2,0.2,73,0.00,,,0.00,WUHU216HW,2013-01-11 23:15:00,
2013-01-11 18:20:00,37.7,29.9,30.31,SSW,203,0.0,0.4,73,0.00,,,0.00,WUHU216HW,2013-01-11 23:20:00,
2013-01-11 18:25:00,37.7,29.8,30.30,SE,135,0.4,0.7,73,0.00,,,0.00,WUHU216HW,2013-01-11 23:25:00,
2013-01-11 18:30:00,37.6,29.8,30.30,South,180,0.7,0.7,73,0.00,,,0.00,WUHU216HW,2013-01-11 23:30:00,
2013-01-11 18:35:00,37.8,30.0,30.30,SSE,158,0.4,0.9,73,0.00,,,0.00,WUHU216HW,2013-01-11 23:35:00,
2013-01-11 18:40:00,37.7,30.3,30.30,SE,135,0.4,0.9,74,0.00,,,0.00,WUHU216HW,2013-01-11 23:40:00,
2013-01-11 18:45:00,37.7,30.2,30.30,South,180,1.1,1.6,74,0.00,,,0.00,WUHU216HW,2013-01-11 23:45:00,
2013-01-11 18:50:00,37.7,30.5,30.29,South,180,1.1,2.2,75,0.00,,,0.00,WUHU216HW,2013-01-11 23:50:00,
2013-01-11 18:55:00,37.6,30.8,30.29,SSE,158,1.8,2.2,76,0.00,,,0.00,WUHU216HW,2013-01-11 23:55:00,
2013-01-11 19:00:00,37.6,31.4,30.29,SSE,158,2.9,2.9,78,0.00,,,0.00,WUHU216HW,2013-01-12 00:00:00,
2013-01-11 19:05:00,37.6,31.7,30.29,ESE,113,3.4,4.7,79,0.00,,,0.00,WUHU216HW,2013-01-12 00:05:00,
2013-01-11 19:10:00,37.7,31.5,30.29,SE,135,2.7,4.7,78,0.00,,,0.00,WUHU216HW,2013-01-12 00:10:00,
2013-01-11 19:15:00,37.7,31.5,30.29,South,180,3.1,4.5,78,0.00,,,0.00,WUHU216HW,2013-01-12 00:15:00,
2013-01-11 19:20:00,37.9,32.0,30.29,SSE,158,1.3,4.0,79,0.00,,,0.00,WUHU216HW,2013-01-12 00:20:00,
2013-01-11 19:25:00,37.9,32.0,30.28,SE,135,2.2,4.3,79,0.00,,,0.00,WUHU216HW,2013-01-12 00:25:00,
2013-01-11 19:30:00,38.1,32.2,30.28,SSE,158,3.4,4.7,79,0.00,,,0.00,WUHU216HW,2013-01-12 00:30:00,
2013-01-11 19:35:00,38.1,32.2,30.28,SSE,158,2.5,4.7,79,0.00,,,0.00,WUHU216HW,2013-01-12 00:35:00,
2013-01-11 19:40:00,38.1,32.2,30.29,SW,225,3.4,4.7,79,0.00,,,0.00,WUHU216HW,2013-01-12 00:40:00,
2013-01-11 19:45:00,38.3,32.4,30.29,SSE,158,2.5,4.7,79,0.00,,,0.00,WUHU216HW,2013-01-12 00:45:00,
2013-01-11 19:50:00,38.1,32.2,30.29,SSE,158,0.9,4.0,79,0.00,,,0.00,WUHU216HW,2013-01-12 00:50:00,
2013-01-11 19:55:00,38.1,32.5,30.28,SSE,158,4.3,4.3,80,0.00,,,0.00,WUHU216HW,2013-01-12 00:55:00,
2013-01-11 20:00:00,38.1,32.5,30.28,SE,135,3.4,4.3,80,0.00,,,0.00,WUHU216HW,2013-01-12 01:00:00,
2013-01-11 20:05:00,38.3,32.7,30.28,SE,135,5.8,6.3,80,0.00,,,0.00,WUHU216HW,2013-01-12 01:05:00,
2013-01-11 20:10:00,38.3,32.7,30.28,SE,135,3.8,6.7,80,0.00,,,0.00,WUHU216HW,2013-01-12 01:10:00,
2013-01-11 20:15:00,38.3,32.7,30.28,South,180,2.9,6.7,80,0.00,,,0.00,WUHU216HW,2013-01-12 01:15:00,
2013-01-11 20:20:00,38.3,33.0,30.28,ESE,113,4.0,6.3,81,0.00,,,0.00,WUHU216HW,2013-01-12 01:20:00,
2013-01-11 20:25:00,38.3,33.0,30.28,SE,135,4.0,6.5,81,0.00,,,0.00,WUHU216HW,2013-01-12 01:25:00,
2013-01-11 20:30:00,38.3,33.0,30.27,SE,135,4.7,6.5,81,0.00,,,0.00,WUHU216HW,2013-01-12 01:30:00,
2013-01-11 20:35:00,38.3,33.0,30.27,SSE,158,3.8,7.2,81,0.00,,,0.00,WUHU216HW,2013-01-12 01:35:00,
2013-01-11 20:40:00,38.3,33.0,30.27,SSE,158,4.7,7.2,81,0.00,,,0.00,WUHU216HW,2013-01-12 01:40:00,
2013-01-11 20:45:00,38.5,33.5,30.27,SSE,158,4.3,6.3,82,0.01,,,0.01,WUHU216HW,2013-01-12 01:45:00,
2013-01-11 20:50:00,38.3,33.3,30.26,SE,135,4.7,6.7,82,0.01,,,0.01,WUHU216HW,2013-01-12 01:50:00,
2013-01-11 20:55:00,38.3,33.3,30.26,ESE,113,4.3,6.7,82,0.01,,,0.01,WUHU216HW,2013-01-12 01:55:00,
2013-01-11 21:00:00,38.3,33.6,30.26,East,90,6.9,6.9,83,0.01,,,0.01,WUHU216HW,2013-01-12 02:00:00,
2013-01-11 21:05:00,38.3,33.6,30.26,SE,135,7.6,7.8,83,0.01,,,0.01,WUHU216HW,2013-01-12 02:05:00,
2013-01-11 21:10:00,38.1,33.4,30.26,SE,135,6.0,8.1,83,0.01,,,0.01,WUHU216HW,2013-01-12 02:10:00,
2013-01-11 21:15:00,38.1,33.7,30.26,ESE,113,6.9,8.1,84,0.01,,,0.01,WUHU216HW,2013-01-12 02:15:00,
2013-01-11 21:20:00,38.1,33.7,30.26,SSE,158,4.0,8.7,84,0.01,,,0.01,WUHU216HW,2013-01-12 02:20:00,
2013-01-11 21:25:00,38.3,33.9,30.26,South,180,3.6,8.7,84,0.01,,,0.01,WUHU216HW,2013-01-12 02:25:00,
2013-01-11 21:30:00,38.3,33.9,30.26,SSE,158,4.7,7.6,84,0.01,,,0.01,WUHU216HW,2013-01-12 02:30:00,
2013-01-11 21:35:00,38.3,33.9,30.26,SE,135,6.0,8.7,84,0.01,,,0.01,WUHU216HW,2013-01-12 02:35:00,
2013-01-11 21:40:00,38.3,33.9,30.26,SSE,158,4.3,8.7,84,0.00,,,0.01,WUHU216HW,2013-01-12 02:40:00,
2013-01-11 21:45:00,38.3,34.2,30.26,ESE,113,3.8,6.0,85,0.00,,,0.01,WUHU216HW,2013-01-12 02:45:00,
2013-01-11 21:50:00,38.3,33.9,30.26,ESE,113,6.0,7.6,84,0.01,,,0.02,WUHU216HW,2013-01-12 02:50:00,
2013-01-11 21:55:00,38.3,34.2,30.25,SE,135,5.4,8.5,85,0.01,,,0.02,WUHU216HW,2013-01-12 02:55:00,
2013-01-11 22:00:00,38.3,34.2,30.25,South,180,4.7,8.7,85,0.01,,,0.02,WUHU216HW,2013-01-12 03:00:00,
2013-01-11 22:05:00,38.3,34.2,30.25,SSE,158,4.7,8.7,85,0.01,,,0.02,WUHU216HW,2013-01-12 03:05:00,
2013-01-11 22:10:00,38.3,34.5,30.25,SE,135,4.0,7.4,86,0.01,,,0.02,WUHU216HW,2013-01-12 03:10:00,
2013-01-11 22:15:00,38.3,34.5,30.25,SE,135,3.8,7.4,86,0.01,,,0.02,WUHU216HW,2013-01-12 03:15:00,
2013-01-11 22:20:00,38.3,34.5,30.25,SE,135,8.1,9.2,86,0.01,,,0.02,WUHU216HW,2013-01-12 03:20:00,
2013-01-11 22:25:00,38.3,34.5,30.25,SE,135,4.3,9.2,86,0.01,,,0.02,WUHU216HW,2013-01-12 03:25:00,
2013-01-11 22:30:00,38.3,34.7,30.24,SE,135,4.9,8.1,87,0.01,,,0.02,WUHU216HW,2013-01-12 03:30:00,
2013-01-11 22:35:00,38.3,34.7,30.24,SE,135,8.5,8.7,87,0.01,,,0.02,WUHU216HW,2013-01-12 03:35:00,
2013-01-11 22:40:00,38.3,34.7,30.24,ESE,113,6.3,9.2,87,0.01,,,0.02,WUHU216HW,2013-01-12 03:40:00,
2013-01-11 22:45:00,38.3,34.7,30.24,SE,135,6.5,9.2,87,0.00,,,0.02,WUHU216HW,2013-01-12 03:45:00,
2013-01-11 22:50:00,38.3,34.7,30.24,ESE,113,8.9,9.2,87,0.00,,,0.02,WUHU216HW,2013-01-12 03:50:00,
2013-01-11 22:55:00,38.3,34.7,30.24,SE,135,7.6,10.5,87,0.00,,,0.02,WUHU216HW,2013-01-12 03:55:00,
2013-01-11 23:00:00,38.3,34.7,30.24,SE,135,3.8,10.5,87,0.00,,,0.02,WUHU216HW,2013-01-12 04:00:00,
2013-01-11 23:05:00,38.3,34.7,30.25,SE,135,6.5,10.1,87,0.00,,,0.02,WUHU216HW,2013-01-12 04:05:00,
2013-01-11 23:10:00,38.3,34.5,30.25,SSW,203,8.5,8.5,86,0.00,,,0.02,WUHU216HW,2013-01-12 04:10:00,
2013-01-11 23:15:00,38.5,34.7,30.24,ESE,113,6.9,8.9,86,0.01,,,0.03,WUHU216HW,2013-01-12 04:15:00,
2013-01-11 23:20:00,38.5,34.7,30.25,SE,135,7.8,8.9,86,0.01,,,0.03,WUHU216HW,2013-01-12 04:20:00,
2013-01-11 23:25:00,38.5,34.7,30.25,South,180,6.9,8.9,86,0.01,,,0.03,WUHU216HW,2013-01-12 04:25:00,
2013-01-11 23:30:00,38.5,34.9,30.25,South,180,6.9,8.1,87,0.01,,,0.03,WUHU216HW,2013-01-12 04:30:00,
2013-01-11 23:35:00,38.3,34.7,30.24,SSE,158,4.9,9.8,87,0.01,,,0.03,WUHU216HW,2013-01-12 04:35:00,
2013-01-11 23:40:00,38.3,35.0,30.24,SE,135,9.2,9.8,88,0.01,,,0.03,WUHU216HW,2013-01-12 04:40:00,
2013-01-11 23:45:00,38.3,35.0,30.24,SE,135,4.5,9.2,88,0.01,,,0.03,WUHU216HW,2013-01-12 04:45:00,
2013-01-11 23:50:00,38.1,35.1,30.24,SSE,158,3.6,9.6,89,0.01,,,0.03,WUHU216HW,2013-01-12 04:50:00,
2013-01-11 23:55:00,37.9,34.9,30.24,ESE,113,1.6,9.6,89,0.01,,,0.03,WUHU216HW,2013-01-12 04:55:00,